Location: Caucaguita
(10.3578°N, 66.8025°W)
Time: 02:13:08
(UTC+00:00)

GPS 2-15 Rocket1 - Pass Details

Date: 18 November 2025
Orbit: 608 x 653 km, 19.8° (Epoch: 09 December)

Event Time Altitude Azimuth Distance (km) Brightness Sun altitude
Rises 23:20:04 0° 291° (WNW) 2,921 7.3 -19.2°
Reaches altitude 10° 23:22:48 10° 305° (NW) 2,005 6.2 -19.9°
Maximum altitude 23:26:40 25° 0° (N) 1,269 4.5 -20.8°
Enters shadow 23:26:58 25° 7° (N) 1,274 4.4 -20.8°
